Orbital Elements at Epoch 2459200.5 (2020-Dec-17.0) TDB
Reference: JPL 17 (heliocentric ecliptic J2000)
Element | Value | Uncertainty (1-sigma) | Units |
e | .1378425317936586 | 4.8127e-08 | |
a | 3.097037155072663 | 3.162e-08 | au |
q | 2.670133712558418 | 1.6103e-07 | au |
i | 10.69343791583038 | 6.0327e-06 | deg |
node | 247.6209461816161 | 2.8444e-05 | deg |
peri | 28.93782196801493 | 3.5721e-05 | deg |
M | 40.74492063922731 | 2.3092e-05 | deg |
tp | 2458975.185560007388 (2020-May-05.68556001) | 0.00012635 | TDB |
period | 1990.756077685138 5.45 | 3.0487e-05 8.347e-08 | d yr |
n | .1808358161179696 | 2.7694e-09 | deg/d |
Q | 3.523940597586909 | 3.5978e-08 | au |
|
| | Orbit Determination Parameters
Additional Information
|